Location: Croydon
(51.3762°N, 0.0982°W)
Time: 09:00:41
(UTC+01:00)

VELOX 1 - Pass Details

Date: 25 April 2019
Orbit: 629 x 644 km, 98.2° (Epoch: 24 May)

Event Time Altitude Azimuth Distance (km) Brightness Sun altitude
Exits shadow 01:57:26 86° 301° (WNW) 639 ? -24.3°
Drops below altitude 10° 02:01:47 10° 345° (NNW) 2,022 ? -24.1°
Sets 02:03:59 0° 346° (NNW) 2,936 ? -24.0°
